Погода в Моршанске

Погода в Моршанске : погода сейчас, прогноз погоды и архив. Всё, что Вы хотите узнать о погоде в Моршанске!

Поиск расширенной информации на нашем сайте:

Другие новости

Новости СМИ2

Главная страница сайта

Новости сайта

03.07.2017

Напоминаем, что на нашем специализированном сайте Метеоцентр.Азия вы можете получить высокодетализированные автоматические прогнозы погоды по пунктам России, СНГ и мира в авиационном формате (включающие направление и скорость ветра, видимость, явления погоды, количество и форму облачности, нижнюю и верхнюю границу облачности).


Погода в Моршанске - сегодня

Время (UTC), дата Ветер
(°,м/с) 
Видим.   Явления Облачность Т
(°С)
Тd
(°С)
f(%) Тe
(°С)
Pmin
(гПа)
dP
(гПа)
Po
(мм)
O2
(г/м3)
Тmin Tmax R s Состояние
почвы
21 20.06.18 270 (З) 10 км    ясно 
+16.2 +7.4 56 +17  1010.9  0.8  746  282           
00 21.06.18 280 (З) 10 км    ясно 
+15.1 +9.5 69 +16  1011.4  0.5  746  283           
03 21.06.18 290 (З) 10 км    ясно 
+15.4 +8.8 65 +16  1012.7  1.3  747  283  +13.5         
06 21.06.18 270 (З) 10 км    ясно 
+21.1 +8.4 44 +21  1012.7  0.3  747  278           
18 21.06.18 280 (З) 10 км    ясно 
+21 +9.9 49 +22  1011.5  0.8  746  277           
21 21.06.18 270 (З) 10 км    ясно 
+18.2 +9.8 58 +20  1012.2  0.6  747  280           
00 22.06.18 270 (З) 10 км    ясно 
+16.4 +10.4 68 +20  1012.9  0.6  747  282           
03 22.06.18 тихо ()   10 км    ясно 
+18.8 +13.1 69 +24  1014  1.1  748  279  +12.6         
06 22.06.18 190 (Ю) 10 км    ясно 
+22.8 +11.9 50 +27  1013.9  0.2  748  276           
09 22.06.18 210 (ЮЗ) 10 км    4/3 600 м верхняя 
[Cu med, cong|Ci fib]
+26.8 +10.5 36 +29  1013.2  -0.5  748  273           
12 22.06.18 210 (ЮЗ) 10 км    8/0 верхняя 
[Ci]
+28.9 +8.6 28 +29  1011.6  -1.4  747  271           
18 22.06.18 150 (ЮВ) 10 км    3/0 верхняя 
[Ci fib]
+20.3 +13.7 66 +27  1011.5  0.2  746  277           
21 22.06.18 160 (Ю) 10 км    ясно 
+17.6 +13.5 77 +25  1011.6  746  280           
00 23.06.18 190 (Ю) 10 км    ясно 
+17.5 +13.4 77 +25  1012.3  0.7  747  280           
06 23.06.18 180 (Ю) 10 км    ясно 
+26.1 +12.9 44 +31  1012.2  0.1  747  272           
09 23.06.18 170 (Ю) 10 км    6/6 600 м 
[Cu med, cong]
+30.6 +10.9 30 +33  1011.7  -0.3  747  269           
12 23.06.18 140 (ЮВ) 10 км    8/8 600 м 
[Cu med, cong]
+31 +11.2 30 +34  1011  -0.7  746  268           
18 23.06.18 130 (ЮВ) 10 км    3/0 средняя 
[Ac lent]
+22.6 +13.2 55 +28  1010.3  -0.2  746  275           
21 23.06.18 тихо ()   10 км    ясно 
+17.9 +14 78 +25  1010.9  0.2  746  279           
00 24.06.18 130 (ЮВ) 10 км    ясно 
+19.5 +12.6 64 +26  1010.6  -0.2  746  278           
03 24.06.18 120 (ЮВ) 10 км    ясно 
+20.3 +12.1 59 +24  1010.7  0.2  746  277  +16.6         
06 24.06.18 130 (ЮВ) 10 км    3/0 верхняя 
[Ci fib]
+26.8 +12.8 42 +32  1009.9  -0.4  745  271           
09 24.06.18 120 (ЮВ) 5{11}  10 км    5/5 600 м 
[Cu hum]
+31.2 +8.9 25 +31  1009.5  -0.2  745  268           
18 24.06.18 250 (З) 10 км    8/8 600 м кучево-дожд. 
[Cb cap]
+25.3 +11.9 43 +29  1010  1.3  745  273           
21 24.06.18 200 (Ю) 10 км    8/0 средняя 
[Ac und]
+20.8 +16.9 78 +33  1011.6  1.5  746  276           
Время (UTC), дата Ветер
(°,м/с) 
Видим.   Явления Облачность Т
(°С)
Тd
(°С)
f(%) Тe
(°С)
Pmin
(гПа)
dP
(гПа)
Po
(мм)
O2
(г/м3)
Тmin Tmax R s Состояние
почвы

Для получения пояснительной информации подведите курсор к названию столбца.

ПОГОДА в Моршанске - архив

Всё, что Вы хотите узнать о погоде в Моршанске - удобно и подробно!

Выберите нужную дату (начиная с 1 января 2015* года) и нажмите кнопку "Найти".
Будут отображены архивные сводки погоды по пункту Моршанск, начиная с указанной даты.


Отображать данные в формате CSV (для использования в таблицах Excel)


Внимание! Наш архив погоды предназначен исключительно для личного некоммерческого использования в познавательных целях. Если Вам необходимы официальные справки о состоянии погоды (для производственных, юридических, коммерческих и т.п. целей), обращайтесь в органы Росгидромета.

*Примечание: данная дата относится к архиву по метеостанциям СССР (Россия, СНГ, Балтия).
Архив по метеостанциям Зарубежной Европы и Азии (кроме Китая) хранится 10 дней, по другим регионам земного шара (Китай, Африка, Америка, Австралия, Океания) - 1 день.

Моршанск - район местоположения метеостанции


Название, широта, долгота, высота метеостанции:
Моршанск 53.4°ш. 41.8°д. 142 м над ур. моря [Российская Федерация]

Дополнительная информация

В oтличие oт бoльшинства пoгoдных сайтoв мы публикуем пoдрoбную метеoинфoрмацию в детальнoм прoфессиoнальнoм фoрмате.

Характеристики температуры и влажнoсти вoздуха измеряются на высoте 2 м в тени вдали oт зданий и деревьев.
Скoрoсть ветра измеряется на высoте 10 м (на урoвне рoста челoвека скoрoсть ветра ниже в 1.5-2 раза). Если метеoстанция нахoдится в гoрoде или в лесу, тo скoрoсть ветра занижена на 2-4 м/с пo сравнению с oткрытым местoм. Скoрoсть ветра над акватoриями крупных рек и oзёр, а также на вершинах хoлмoв на 2-5 м/с выше, чем в oбычных услoвиях.
Атмoсфернoе давление в разных тoчках местнoсти мoжет значительнo oтличаться oт давления на метеoстанции, в зависимoсти oт услoвий рельефа (при пoдъёме на 10 м давление пoнижается примернo на 1 мм рт.ст.).